Temperature
7 7 7 7 7 7 7 7 8 8 8 8 8 8 8 8 8 8 8 8 8 8 8 8 8 8 7 7 7 6 5 5 4 3 3 3 2 2 2 2 1 1 1
6 6 6 6 6 6 7 7 7 7 7 7 7 7 7 7 7 7 7 7 7 7 7 7 7 7 6 6 5 5 4 3 3 2 2 2 1 1 1 1 0 0 0
5 5 5 5 6 6 6 6 6 6 6 6 6 6 6 7 6 6 7 6 6 6 6 6 6 5 5 4 3 3 2 2 2 2 1 1 0 0 -0 -1 -1 -1 -1
5 5 5 5 5 5 5 5 5 5 5 5 5 5 5 5 5 5 5 5 5 5 4 4 4 3 3 2 2 1 1 1 1 1 1 0 -0 -1 -2 -2 -2 -2 -3
4 4 4 4 4 4 4 4 4 4 4 4 4 4 4 4 3 3 3 3 3 3 2 2 2 1 1 1 0 0 0 0 -0 -0 -1 -1 -2 -3 -3 -4 -4 -4 -3
3 3 3 3 3 3 3 2 2 2 2 2 2 2 2 2 2 1 1 1 1 1 1 0 0 0 -0 -0 -0 -1 -1 -1 -1 -2 -2 -3 -4 -5 -5 -5 -5 -5 -5
2 2 2 2 2 2 2 2 2 1 1 1 1 1 1 1 0 0 0 0 0 -0 -0 -1 -1 -1 -1 -1 -2 -2 -2 -3 -3 -3 -4 -5 -5 -6 -6 -6 -6 -6 -5
2 2 2 2 2 1 1 1 1 1 1 1 0 0 0 -0 -0 -0 -1 -1 -1 -1 -1 -2 -2 -2 -2 -3 -3 -3 -4 -4 -5 -5 -5 -5 -6 -6 -6 -6 -6 -6 -5
1 1 1 1 1 1 1 1 0 0 0 0 -0 -0 -0 -1 -1 -1 -2 -2 -2 -2 -3 -3 -3 -3 -4 -4 -5 -5 -6 -6 -6 -6 -6 -6 -6 -6 -6 -6 -6 -6 -6
1 1 1 1 1 1 1 0 0 -0 -0 -0 -1 -1 -1 -1 -2 -2 -2 -3 -3 -4 -4 -4 -4 -5 -5 -6 -6 -6 -6 -7 -7 -6 -6 -6 -6 -6 -6 -7 -7 -7 -7
1 1 1 1 1 1 0 0 -0 -0 -1 -1 -1 -2 -2 -2 -3 -3 -3 -4 -4 -4 -5 -5 -6 -6 -6 -6 -7 -6 -7 -7 -7 -6 -6 -6 -6 -6 -7 -7 -7 -7 -7
1 1 1 1 1 0 0 -0 -0 -1 -1 -2 -2 -2 -3 -3 -3 -4 -4 -5 -5 -5 -6 -6 -6 -6 -6 -6 -6 -6 -7 -7 -6 -6 -6 -7 -7 -7 -7 -7 -7 -7 -7
1 1 1 0 0 0 0 -0 -1 -1 -2 -2 -2 -3 -3 -4 -4 -5 -5 -6 -6 -6 -6 -7 -7 -7 -7 -7 -7 -7 -7 -7 -7 -7 -7 -7 -7 -7 -7 -7 -6 -6 -6
1 1 0 0 0 0 -0 -0 -1 -1 -2 -2 -2 -3 -4 -4 -5 -5 -6 -6 -6 -6 -7 -7 -7 -7 -7 -7 -7 -7 -7 -7 -7 -7 -7 -7 -7 -7 -7 -7 -7 -6 -6
1 1 0 0 0 0 -0 -1 -1 -1 -2 -2 -3 -3 -4 -4 -5 -6 -6 -6 -7 -7 -7 -7 -7 -7 -7 -7 -7 -7 -7 -7 -7 -7 -7 -7 -7 -7 -7 -7 -7 -7 -7
1 1 0 0 -0 -0 -0 -1 -1 -2 -2 -3 -3 -4 -4 -5 -5 -6 -6 -7 -7 -7 -8 -7 -8 -8 -8 -8 -8 -8 -8 -8 -8 -8 -8 -8 -7 -7 -7 -7 -7 -7 -7
1 1 0 0 -0 -0 -1 -1 -1 -2 -2 -3 -3 -4 -5 -5 -6 -6 -7 -7 -7 -8 -8 -8 -8 -8 -8 -8 -8 -8 -8 -8 -8 -8 -8 -8 -8 -8 -8 -8 -8 -8 -8
1 0 0 -0 -0 -1 -1 -1 -2 -2 -3 -3 -4 -4 -5 -5 -6 -7 -7 -7 -8 -8 -8 -8 -8 -8 -8 -8 -8 -8 -8 -8 -8 -8 -8 -8 -8 -8 -8 -8 -8 -8 -8
1 0 0 -0 -0 -1 -1 -2 -2 -2 -3 -3 -4 -5 -5 -6 -6 -7 -7 -8 -8 -8 -8 -9 -9 -9 -9 -9 -9 -9 -8 -8 -8 -8 -8 -8 -8 -9 -9 -8 -9 -8 -9
0 0 -0 -0 -1 -1 -1 -2 -2 -3 -3 -4 -4 -5 -6 -6 -7 -7 -8 -8 -8 -9 -9 -9 -9 -9 -9 -9 -9 -9 -9 -8 -8 -8 -8 -9 -9 -9 -9 -9 -9 -9 -9
0 -0 -0 -1 -1 -1 -2 -2 -2 -3 -3 -4 -5 -5 -6 -7 -7 -7 -8 -8 -9 -9 -9 -9 -9 -9 -9 -9 -9 -9 -9 -8 -8 -9 -9 -9 -9 -9 -9 -9 -9 -9 -9
-0 -0 -1 -1 -1 -2 -2 -2 -3 -3 -4 -4 -5 -5 -6 -7 -7 -7 -8 -8 -9 -9 -9 -9 -9 -9 -9 -9 -9 -9 -9 -9 -9 -9 -9 -9 -9 -9 -9 -9 -9 -9 -9
-0 -1 -1 -1 -1 -2 -2 -2 -3 -3 -4 -4 -5 -5 -6 -6 -7 -7 -8 -8 -8 -8 -9 -9 -9 -8 -9 -9 -9 -9 -9 -9 -9 -9 -9 -9 -9 -9 -9 -9 -9 -9 -9
-1 -1 -1 -1 -2 -2 -2 -3 -3 -3 -4 -4 -5 -5 -6 -6 -7 -7 -7 -8 -8 -8 -8 -8 -8 -8 -8 -9 -9 -9 -9 -9 -9 -9 -9 -9 -9 -9 -9 -9 -9 -9 -9
-2 -2 -2 -2 -2 -2 -3 -3 -3 -4 -4 -4 -5 -5 -6 -6 -6 -7 -7 -8 -8 -8 -8 -8 -8 -8 -8 -8 -8 -9 -9 -9 -9 -9 -9 -9 -9 -9 -9 -9 -9 -9 -9
-2 -2 -2 -2 -2 -3 -3 -3 -3 -4 -4 -4 -5 -5 -6 -6 -6 -7 -7 -7 -7 -7 -8 -8 -8 -8 -8 -8 -8 -8 -9 -9 -9 -9 -9 -9 -9 -9 -9 -9 -9 -9 -9
Wind_Speed
7 7 8 8 8 8 8 9 9 9 9 9 9 9 9 8 6 5 4 3 1 2 3 3 4 4 4 3 3 3 3 3 3 2 1 2 3 4 4 5 6 8 9
7 7 8 8 9 9 9 9 10 10 10 10 10 10 10 10 9 7 7 6 5 5 6 7 7 6 7 5 4 4 4 3 3 4 2 2 3 4 3 4 6 8 9
7 7 8 8 9 9 9 9 10 10 10 11 11 11 11 10 10 10 9 9 9 8 8 8 7 7 7 5 5 5 4 4 4 4 3 2 2 3 3 3 5 6 9
7 7 8 8 8 8 8 9 9 9 10 10 11 11 11 11 11 10 11 11 11 11 10 9 8 7 7 7 6 5 5 5 5 4 3 2 2 2 2 3 3 3 4
6 7 7 7 7 8 8 9 9 10 11 11 11 11 11 10 10 11 11 11 11 11 10 9 8 9 9 7 5 4 4 3 3 3 2 2 1 1 2 2 2 2 3
6 6 6 7 7 8 8 8 9 10 11 11 12 12 12 11 15 16 12 10 10 10 9 9 9 10 10 10 9 6 4 2 2 1 1 1 1 2 2 1 0 1 3
6 6 6 7 7 7 8 9 10 10 10 11 11 11 12 14 17 17 16 11 10 9 8 7 6 7 8 5 5 5 3 3 1 1 0 1 1 1 1 0 1 3 5
5 6 6 6 7 7 7 8 8 8 8 8 9 9 9 11 15 15 14 9 7 6 6 6 5 4 4 4 3 2 2 1 1 1 1 1 1 1 2 3 4 4 5
5 5 5 5 6 6 7 7 6 6 7 6 6 6 7 8 12 11 9 4 5 5 4 4 4 4 4 5 3 2 3 4 3 2 4 6 8 9 8 3 2 3 5
5 5 5 5 5 5 5 5 4 4 5 4 4 4 5 5 9 11 10 4 4 3 2 2 4 5 5 6 4 3 3 3 4 5 6 7 6 8 9 4 4 4 3
5 5 5 5 5 4 4 3 3 3 3 3 4 4 5 6 8 10 10 5 5 4 3 3 2 6 7 7 6 3 5 4 3 4 4 4 4 3 3 2 2 4 5
5 5 4 4 4 4 4 2 2 2 3 3 3 3 3 4 5 6 8 7 7 4 3 3 4 8 9 9 6 6 8 6 3 3 3 4 3 3 3 4 6 8 9
5 5 5 4 3 3 3 1 1 2 2 2 2 2 2 2 2 5 7 8 8 4 3 6 8 9 8 6 7 7 6 3 3 3 3 3 3 3 3 4 7 9 12
6 6 5 4 3 3 3 2 2 3 3 3 3 2 2 2 3 4 4 5 7 6 5 7 10 10 7 6 6 4 3 3 3 3 4 4 3 4 5 5 6 6 7
7 5 5 4 4 4 3 3 3 3 3 2 2 2 2 2 3 7 5 3 4 4 6 4 4 4 3 3 3 3 3 3 3 3 3 4 5 6 6 5 6 6 7
6 6 4 4 3 3 4 2 3 3 3 3 2 1 2 3 6 7 8 9 10 10 6 4 4 4 4 4 4 4 4 4 4 3 4 6 7 8 8 7 7 8 9
7 6 5 4 4 3 3 3 2 2 3 2 2 2 3 5 7 8 9 10 11 9 4 4 4 4 4 4 4 4 5 5 4 5 6 7 8 8 8 9 8 9 10
7 7 6 5 4 4 3 2 1 1 2 3 4 5 5 6 8 9 9 8 6 5 3 4 4 5 5 5 5 5 5 6 6 7 7 8 8 9 9 9 9 10 11
7 5 5 4 4 4 3 2 1 2 2 2 2 3 5 6 8 9 8 3 4 5 5 5 5 5 5 5 5 6 6 7 8 8 8 9 8 9 10 10 10 15 14
6 9 7 5 4 4 3 3 3 3 3 3 3 3 2 2 3 5 4 4 4 5 5 5 5 6 6 6 6 6 7 8 8 8 9 9 9 9 11 12 11 12 12
6 7 9 6 5 4 4 4 3 3 3 3 4 4 6 3 4 5 5 5 5 5 5 6 6 6 6 6 6 7 9 9 9 9 9 9 9 10 10 11 12 12 13
7 6 6 5 5 4 4 4 4 4 4 4 4 4 8 4 4 5 5 5 5 5 5 6 6 6 6 7 7 8 9 10 10 10 10 10 10 11 11 11 12 12 13
7 7 6 5 5 6 5 4 4 4 4 4 4 4 4 4 5 5 5 5 5 5 6 6 6 7 8 11 11 8 10 11 11 10 11 11 11 11 11 12 14 15 15
8 8 7 6 5 5 5 5 5 5 5 5 5 5 5 5 5 6 6 6 6 6 8 8 8 9 12 14 14 15 16 18 17 14 14 13 13 13 13 14 15 17 17
7 7 7 6 6 6 5 5 5 5 5 5 5 5 5 5 5 6 6 6 7 7 8 10 11 12 14 16 18 19 22 24 24 20 16 13 15 16 16 17 16 17 18
8 7 7 6 6 6 6 5 5 5 5 5 5 5 5 6 6 6 6 6 7 7 8 10 13 15 18 18 20 22 24 25 26 26 20 13 15 15 16 16 19 18 19
Wind_Direction
12 12 19 16 12 15 18 12 7 8 11 11 9 11 12 9 8 11 10 13 41 61 71 100 99 97 103 97 104 114 117 139 157 128 111 124 151 165 177 197 223 242 256
16 23 29 24 23 25 22 17 18 20 20 20 22 26 26 25 26 32 35 40 57 74 81 90 92 95 94 93 96 99 100 95 129 139 139 149 170 179 188 212 235 246 252
29 34 33 30 29 29 26 24 27 29 29 31 35 36 35 35 39 45 52 56 59 63 71 85 90 96 94 90 90 92 88 78 81 123 130 145 164 183 199 224 240 252 261
43 43 39 36 34 33 33 33 35 37 40 41 42 43 43 45 48 54 62 66 67 67 67 72 78 87 96 94 89 90 93 90 95 111 126 148 166 175 185 219 248 249 263
54 51 48 46 43 43 43 43 45 46 49 49 50 48 47 51 55 61 64 69 72 71 69 69 76 87 94 92 95 91 91 100 110 115 127 133 148 171 211 214 237 276 286
62 59 57 56 52 51 52 52 54 54 53 54 55 55 54 58 66 70 72 68 68 68 66 62 63 62 69 76 85 87 89 90 90 97 105 150 213 222 208 191 215 329 300
70 67 64 64 61 57 59 59 58 57 59 60 58 58 59 62 67 70 71 70 67 65 64 61 61 58 55 43 48 53 40 42 61 89 157 249 248 219 138 349 280 256 255
78 75 74 74 72 66 64 63 61 61 63 64 63 62 62 62 66 69 72 70 69 65 61 59 61 58 50 31 26 18 333 303 243 190 203 262 279 247 198 214 240 267 271
80 74 74 80 80 75 70 67 67 71 68 67 70 69 67 57 57 55 60 74 74 69 65 58 49 36 24 11 17 359 339 322 305 284 280 285 286 283 275 260 277 294 296
91 85 80 82 87 84 84 84 82 84 82 76 68 71 76 62 50 44 41 44 46 37 38 54 56 33 6 1 17 5 339 338 358 341 318 306 296 287 284 241 204 228 265
110 105 100 97 98 97 89 88 99 98 91 82 76 69 67 61 49 42 38 37 22 15 10 17 24 7 351 342 341 337 312 321 328 311 304 302 303 295 294 283 220 205 230
128 122 117 114 107 103 94 76 81 91 89 82 83 67 51 53 52 34 26 22 16 10 1 15 354 341 332 327 323 312 316 324 322 307 304 300 300 304 305 306 296 284 264
147 139 131 123 117 117 110 76 45 57 69 59 71 70 33 15 21 21 10 4 2 4 343 334 327 324 325 326 320 317 323 322 310 305 299 289 281 276 281 284 280 273 267
151 146 145 138 130 110 91 62 51 43 43 47 52 37 1 2 30 26 8 1 2 358 350 332 325 317 312 300 302 305 283 261 281 276 283 285 293 293 286 282 284 288 284
155 155 153 146 137 116 90 67 75 76 76 70 56 33 21 354 346 348 346 338 335 316 327 322 313 313 321 320 316 307 298 296 298 281 287 298 300 296 292 291 283 284 278
161 164 163 159 154 150 143 118 90 127 102 77 58 359 334 321 327 332 330 327 326 322 329 320 314 322 325 325 322 317 315 311 301 297 297 296 294 294 294 290 282 280 281
168 169 166 166 169 170 163 165 192 215 212 223 245 289 302 311 316 317 317 319 319 316 310 301 303 306 303 302 298 295 295 296 295 290 287 286 285 286 286 287 286 283 282
166 169 167 170 167 165 169 173 183 215 263 266 243 253 278 297 305 307 308 316 316 316 285 280 284 287 288 288 287 287 290 293 291 287 284 283 282 282 282 282 282 281 284
164 165 168 161 157 158 160 168 206 238 253 267 273 273 273 292 303 302 299 277 279 287 287 282 277 278 278 277 278 280 282 284 283 282 280 278 277 276 277 278 280 282 284
170 171 166 162 163 167 175 194 219 235 248 258 266 266 269 294 292 292 281 257 259 266 270 273 273 272 271 271 273 276 278 278 278 276 276 275 274 272 275 277 278 280 280
165 172 173 167 174 180 187 202 216 227 242 251 255 270 280 258 262 273 272 265 260 263 265 268 269 270 268 268 269 270 273 275 274 273 274 273 272 273 273 274 275 277 278
165 168 173 177 179 184 194 202 212 226 241 255 260 274 289 277 261 264 265 264 261 258 257 260 264 263 261 262 265 270 273 274 273 271 271 272 272 274 275 275 276 278 278
165 168 174 179 180 199 206 206 214 226 237 247 255 260 265 260 260 262 263 263 264 265 266 263 266 270 269 266 262 260 267 270 270 270 274 277 276 275 275 275 276 278 277
171 174 179 181 184 192 202 212 217 226 233 242 250 256 257 259 264 268 267 269 270 269 270 269 268 270 272 276 276 270 266 268 270 269 267 268 271 273 273 273 273 274 275
177 180 184 185 190 198 206 213 219 226 236 246 251 256 259 263 266 270 271 271 274 274 275 276 276 276 275 275 277 277 278 280 280 277 271 267 267 267 269 271 273 276 276
182 185 187 187 192 198 205 213 220 226 233 242 248 251 257 262 266 269 272 273 276 278 280 282 279 279 280 283 283 284 287 288 288 288 285 278 275 274 274 275 276 276 279
Height
1482 1481 1479 1478 1477 1475 1474 1473 1471 1470 1468 1467 1466 1464 1464 1463 1463 1463 1463 1463 1463 1463 1463 1464 1464 1464 1464 1465 1464 1465 1466 1468 1470 1470 1473 1474 1475 1478 1479 1481 1482 1483 1483
1480 1478 1477 1476 1474 1473 1471 1470 1468 1467 1465 1463 1462 1461 1459 1459 1458 1458 1458 1458 1458 1458 1458 1458 1459 1459 1459 1460 1460 1461 1462 1463 1465 1467 1468 1469 1471 1473 1474 1475 1476 1477 1477
1478 1477 1475 1474 1473 1471 1470 1468 1466 1464 1462 1461 1459 1458 1457 1456 1455 1454 1454 1454 1453 1454 1454 1454 1454 1455 1455 1456 1457 1458 1459 1460 1462 1464 1465 1466 1467 1468 1470 1470 1471 1470 1470
1476 1475 1474 1473 1471 1469 1468 1466 1464 1462 1460 1459 1457 1456 1455 1454 1453 1452 1451 1451 1451 1451 1451 1451 1452 1452 1453 1454 1455 1457 1458 1459 1460 1461 1462 1463 1463 1464 1465 1465 1465 1465 1464
1475 1474 1473 1472 1470 1469 1467 1465 1463 1462 1460 1459 1457 1456 1455 1453 1452 1451 1450 1450 1450 1450 1450 1451 1451 1452 1453 1454 1455 1456 1457 1457 1457 1458 1458 1459 1460 1460 1461 1460 1460 1459 1459
1474 1473 1473 1471 1470 1469 1467 1466 1464 1463 1461 1460 1459 1458 1456 1454 1454 1453 1452 1451 1451 1451 1451 1452 1452 1453 1454 1454 1455 1455 1455 1455 1455 1455 1455 1456 1456 1457 1457 1457 1456 1455 1454
1474 1473 1473 1472 1471 1469 1468 1467 1466 1465 1464 1462 1461 1460 1459 1457 1457 1456 1455 1454 1454 1453 1453 1453 1453 1453 1453 1453 1453 1453 1453 1453 1453 1454 1453 1453 1454 1453 1453 1453 1452 1451 1450
1474 1473 1473 1472 1471 1471 1470 1469 1467 1467 1466 1465 1464 1463 1462 1460 1459 1458 1457 1456 1456 1455 1454 1454 1453 1453 1453 1452 1452 1452 1451 1451 1451 1450 1451 1450 1450 1450 1450 1449 1448 1447 1446
1474 1473 1473 1473 1472 1472 1471 1470 1470 1469 1468 1467 1466 1465 1464 1463 1462 1460 1459 1458 1456 1455 1454 1454 1453 1452 1451 1451 1450 1449 1449 1448 1448 1448 1448 1447 1447 1447 1446 1446 1445 1444 1441
1474 1474 1474 1474 1474 1473 1473 1472 1471 1471 1470 1469 1467 1466 1465 1464 1462 1461 1460 1458 1457 1455 1454 1453 1452 1451 1450 1449 1448 1447 1447 1446 1446 1445 1445 1444 1444 1444 1443 1443 1442 1441 1439
1474 1474 1474 1475 1474 1474 1474 1473 1472 1472 1470 1469 1468 1467 1466 1464 1463 1461 1459 1458 1456 1454 1453 1452 1450 1449 1448 1447 1446 1445 1444 1444 1443 1443 1442 1442 1442 1441 1441 1440 1439 1438 1436
1474 1475 1475 1475 1475 1475 1475 1474 1473 1472 1471 1470 1468 1467 1465 1464 1462 1460 1458 1457 1455 1453 1452 1450 1449 1448 1446 1445 1444 1443 1442 1442 1441 1440 1440 1439 1439 1438 1437 1436 1435 1433 1432
1474 1474 1475 1475 1475 1475 1475 1474 1473 1472 1471 1470 1468 1467 1465 1463 1461 1459 1458 1456 1454 1452 1450 1449 1447 1445 1444 1443 1442 1441 1440 1439 1439 1438 1437 1437 1436 1435 1433 1432 1430 1428 1426
1473 1474 1475 1475 1475 1475 1474 1474 1473 1472 1470 1469 1468 1466 1464 1462 1460 1458 1456 1454 1452 1450 1448 1447 1445 1443 1442 1441 1440 1439 1438 1437 1436 1435 1434 1433 1432 1431 1429 1427 1424 1422 1419
1472 1473 1474 1474 1474 1474 1473 1473 1472 1471 1470 1468 1467 1465 1463 1461 1459 1457 1454 1452 1450 1448 1446 1444 1443 1441 1440 1439 1438 1437 1436 1435 1433 1432 1431 1429 1427 1426 1424 1422 1419 1416 1413
1470 1471 1472 1472 1472 1472 1472 1471 1470 1470 1468 1467 1465 1463 1461 1459 1456 1454 1452 1450 1447 1446 1444 1442 1440 1439 1437 1436 1435 1434 1433 1431 1430 1428 1427 1425 1423 1420 1418 1416 1414 1410 1407
1468 1469 1470 1470 1470 1470 1470 1469 1468 1468 1466 1464 1463 1461 1458 1456 1454 1451 1449 1447 1445 1443 1441 1439 1438 1436 1435 1433 1432 1431 1429 1428 1426 1424 1422 1420 1418 1415 1412 1410 1407 1404 1400
1465 1466 1467 1467 1468 1468 1467 1467 1466 1464 1463 1461 1460 1458 1455 1453 1451 1448 1446 1444 1442 1440 1439 1437 1435 1433 1432 1430 1429 1427 1425 1424 1422 1420 1418 1415 1413 1410 1407 1404 1401 1398 1394
1462 1463 1464 1465 1465 1465 1465 1464 1463 1462 1460 1458 1456 1454 1452 1450 1448 1445 1443 1441 1439 1437 1435 1434 1432 1430 1428 1427 1425 1423 1421 1419 1417 1415 1412 1410 1407 1404 1401 1398 1395 1391 1388
1458 1460 1461 1461 1462 1462 1461 1461 1460 1458 1457 1455 1453 1451 1449 1446 1444 1442 1440 1437 1435 1433 1432 1430 1428 1426 1424 1422 1420 1418 1416 1414 1412 1409 1407 1404 1401 1398 1395 1391 1388 1384 1380
1454 1456 1457 1457 1458 1458 1458 1457 1456 1455 1453 1451 1450 1448 1445 1443 1440 1438 1436 1434 1432 1430 1428 1426 1424 1422 1420 1418 1415 1413 1410 1408 1406 1403 1400 1397 1394 1391 1388 1384 1380 1377 1372
1450 1451 1453 1453 1454 1454 1454 1453 1452 1451 1449 1448 1446 1444 1442 1439 1436 1434 1432 1430 1428 1426 1423 1421 1419 1417 1415 1413 1410 1407 1405 1402 1400 1397 1393 1390 1387 1384 1380 1376 1373 1369 1365
1445 1447 1448 1449 1450 1450 1450 1449 1448 1447 1446 1444 1442 1440 1437 1435 1432 1430 1428 1425 1423 1421 1419 1416 1414 1412 1410 1407 1405 1402 1398 1396 1393 1390 1386 1382 1379 1376 1372 1368 1364 1360 1356
1439 1441 1443 1444 1445 1445 1445 1445 1444 1443 1441 1440 1438 1435 1433 1431 1428 1426 1424 1421 1419 1417 1414 1412 1409 1406 1404 1401 1398 1396 1392 1389 1386 1382 1379 1375 1371 1367 1363 1359 1355 1351 1347
1434 1436 1438 1439 1440 1441 1441 1441 1440 1439 1437 1435 1433 1431 1429 1427 1424 1422 1420 1417 1414 1412 1410 1407 1404 1401 1398 1395 1392 1389 1386 1383 1379 1376 1372 1367 1363 1359 1355 1351 1346 1342 1338
1429 1431 1433 1434 1435 1436 1436 1436 1435 1434 1433 1431 1429 1427 1425 1423 1420 1418 1415 1413 1410 1407 1405 1402 1399 1396 1392 1389 1386 1382 1379 1376 1372 1369 1365 1361 1356 1351 1347 1343 1338 1333 1329